Regional Weather Roundup
Issued by NWS Goodland, KS

Home | Current Version | Previous Version | Graphics & Text | Print | Product List | Glossary On
Versions: 1 2 3 4 5 6 7 8 9 10 11 12 13 14 15 16 17 18 19 20 21 22 23 24 25 26 27 28 29 30 31 32 33 34 35 36 37 38 39 40 41 42 43 44 45 46 47 48 49 50
000
ASUS43 KGLD 060859
RWRGLD

GOODLAND FORECAST AREA HOURLY WEATHER ROUNDUP
NATIONAL WEATHER SERVICE GOODLAND KS
200 AM MST FRI MAR 06 2015

...OFFICIAL OBSERVATIONS...

CITY           SKY/WX    TMP DP  RH WIND       PRES   REMARKS
GOODLAND KS    CLEAR     27  21  78 W9        30.26S
HILL CITY KS   CLEAR     26  15  63 W8        30.26F
IMPERIAL NEB     N/A     25  16  68 W9        30.23S
MCCOOK NEB     CLEAR     28  18  66 W15       30.25S WCI  16
AKRON CO       CLEAR     25  18  74 W12       30.23S WCI  14
BURLINGTON CO  CLEAR     25  20  81 W9        30.26S
LIMON CO       PTCLDY     7   3  84 N6        30.26S
$$

...UNOFFICIAL OBSERVATIONS...

CITY           SKY/WX    TMP DP  RH WIND       PRES   REMARKS
COLBY KS       CLEAR     28  25  86 W10       30.26S WCI  19
GOVE KS          N/A     24  32 100 MISG        N/A
NORTON KS      CLEAR     23  12  63 SW9       30.23F
SHARON SPRINGS   N/A     25  20  82 CALM        N/A
YUMA CO          N/A     24  17  75 SW6         N/A
$$


USA.gov is the U.S. government's official web portal to all federal, state and local government web resources and services.